(70870) = 2001 BU16 = 1999 VL156

Discovered at Socorro on 1999-11-12 by LINEAR.

Orbit

Orbit type: Main Belt

Note: WebGL enabled browser required.

epoch2024-03-31.0
epoch JD2460400.5
perihelion date2021-01-02.78831
perihelion JD2459217.28831
argument of perihelion (°)227.88935
ascending node (°)52.47052
inclination (°)9.58207
eccentricity0.1266020
perihelion distance (AU)2.3956317
Tisserand w.r.t. Jupiter3.3
ΔV w.r.t. Earth (km/sec)10.1
semimajor axis (AU)2.7428866
mean anomaly (°)256.71693
mean daily motion (°/day)0.21696620
aphelion distance (AU)3.090
period (years)4.54
P-vector [x]0.17162223
P-vector [y]-0.84761925
P-vector [z]-0.50208308
Q-vector [x]0.97627829
Q-vector [y]0.21462074
Q-vector [z]-0.02861202
absolute magnitude15.08
phase slope0.15
uncertainty0
referenceMPEC 2024-F28
observations used1124
oppositions20
arc length (days)8893
first opposition used1999
last opposition used2024
residual rms (arc-secs)0.74
perturbers coarse indicatorM-v
perturbers precise indicator003Ek
first observation date used1999-11-12.0
last observation date used2024-03-18.0
computer nameMPCLINUX
JD of orbit computation2456760.830400
perihelion JD uncertainty (days)1.1755E-04
argument of perihelion uncertainty (°)3.4549E-05
ascending node uncertainty (°)2.3684E-05
inclination uncertainty (°)6.5875E-06
eccentricity uncertainty 4.0712E-08
perihelion distance uncertainty (AU)1.1203E-07
Minimum Orbit Intersection Distances (in AU)
for orbit epoch: 2460400.5, reference: E2024-GB3
Mercury1.93481
Venus1.67335
Earth1.39144
Mars0.93173
Jupiter2.03378
Saturn5.99212
Uranus15.5509
Neptune26.8744

Observations

1146 total observations over interval: 1999 11 12.29768 – 2024 03 18.172493
These data are available for download (format description).

Date (UT) J2000 RA J2000 Dec Magn Location Ref
1999 11 12.29768 03 48 00.57 +20 49 11.1 18.7   704 – Lincoln Laboratory ETS, New Mexico MPS 10853
1999 11 12.31217 03 47 59.65 +20 49 11.2 19.0   704 – Lincoln Laboratory ETS, New Mexico MPS 10853
1999 11 12.32647 03 47 58.75 +20 49 10.8 18.8   704 – Lincoln Laboratory ETS, New Mexico MPS 10853
1999 11 12.34077 03 47 57.91 +20 49 10.6 18.7   704 – Lincoln Laboratory ETS, New Mexico MPS 10853
1999 11 12.35509 03 47 56.98 +20 49 10.2 19.2   704 – Lincoln Laboratory ETS, New Mexico MPS 10853
1999 11 16.22223 03 44 05.72 +20 48 00.8 19.0   704 – Lincoln Laboratory ETS, New Mexico MPS 10853
1999 11 16.25075 03 44 03.94 +20 47 59.3 19.0   704 – Lincoln Laboratory ETS, New Mexico MPS 10853
1999 11 16.26498 03 44 03.07 +20 48 00.0 19.0   704 – Lincoln Laboratory ETS, New Mexico MPS 10853
1999 11 16.27926 03 44 02.32 +20 47 58.3 19.4   704 – Lincoln Laboratory ETS, New Mexico MPS 10853
1999 12 07.22042 03 23 56.40 +20 34 47.7 19.0   704 – Lincoln Laboratory ETS, New Mexico MPS 20877
1999 12 07.23500 03 23 55.54 +20 34 46.5 19.8   704 – Lincoln Laboratory ETS, New Mexico MPS 20877
1999 12 07.26411 03 23 54.03 +20 34 45.6 20.0   704 – Lincoln Laboratory ETS, New Mexico MPS 20877
2001 01 18.33093 09 36 36.26 +28 40 04.1 19.4   704 – Lincoln Laboratory ETS, New Mexico MPS 25673
2001 01 18.34640 09 36 35.55 +28 40 08.8 19.0   704 – Lincoln Laboratory ETS, New Mexico MPS 25673
2001 01 18.36194 09 36 34.74 +28 40 14.9 19.0   704 – Lincoln Laboratory ETS, New Mexico MPS 25673
2001 01 18.37740 09 36 33.98 +28 40 20.2 19.4   704 – Lincoln Laboratory ETS, New Mexico MPS 25673
2001 01 21.30427 09 34 11.80 +28 58 17.3 19.0   704 – Lincoln Laboratory ETS, New Mexico MPS 25673
2001 01 21.31941 09 34 10.98 +28 58 22.2 19.7   704 – Lincoln Laboratory ETS, New Mexico MPS 25673
2001 01 21.33462 09 34 10.24 +28 58 27.7 19.2   704 – Lincoln Laboratory ETS, New Mexico MPS 25673
2001 01 21.33551 09 34 10.12 +28 58 28.4 19.8   704 – Lincoln Laboratory ETS, New Mexico MPS 25673
2001 01 21.34977 09 34 09.49 +28 58 33.3 19.7   704 – Lincoln Laboratory ETS, New Mexico MPS 25673
2001 01 21.35068 09 34 09.40 +28 58 33.1 19.6   704 – Lincoln Laboratory ETS, New Mexico MPS 25673
2001 01 21.36491 09 34 08.69 +28 58 39.1 19.2   704 – Lincoln Laboratory ETS, New Mexico MPS 25673
2001 01 21.36607 09 34 08.57 +28 58 39.5 19.9   704 – Lincoln Laboratory ETS, New Mexico MPS 25673
2001 03 18.15661 08 49 26.15 +30 55 10.7 20.1 R 699 – Lowell Observatory-LONEOS MPS 30211
2001 03 18.16759 08 49 26.00 +30 55 08.8   699 – Lowell Observatory-LONEOS MPS 30211
2001 03 18.17854 08 49 25.70 +30 55 06.9   699 – Lowell Observatory-LONEOS MPS 30211
2001 03 18.18946 08 49 25.59 +30 55 03.8   699 – Lowell Observatory-LONEOS MPS 30211
2002 04 09.37138 15 52 34.12 -18 08 14.4 18.9   704 – Lincoln Laboratory ETS, New Mexico MPS 54531
2002 04 09.38353 15 52 33.90 -18 08 16.3 19.6   704 – Lincoln Laboratory ETS, New Mexico MPS 54531
2002 04 09.40800 15 52 33.37 -18 08 19.5 19.0   704 – Lincoln Laboratory ETS, New Mexico MPS 54531
2002 05 09.27712 15 31 49.25 -18 59 12.3 18.3   704 – Lincoln Laboratory ETS, New Mexico MPS 54415
2002 05 09.28973 15 31 48.50 -18 59 11.6 19.0   704 – Lincoln Laboratory ETS, New Mexico MPS 54415
2002 05 09.30217 15 31 47.71 -18 59 12.2 18.6   704 – Lincoln Laboratory ETS, New Mexico MPS 54415
2002 05 09.31454 15 31 46.98 -18 59 12.8 18.8   704 – Lincoln Laboratory ETS, New Mexico MPS 54415
2002 05 09.32696 15 31 46.25 -18 59 13.5 18.7   704 – Lincoln Laboratory ETS, New Mexico MPS 54415
2002 05 10.30129 15 30 49.20 -19 00 19.0 18.2 V 291 – LPL/Spacewatch II MPS 54415
2002 05 10.32227 15 30 47.91 -19 00 20.4 18.2 V 291 – LPL/Spacewatch II MPS 54415
2002 05 10.34441 15 30 46.56 -19 00 21.8 18.2 V 291 – LPL/Spacewatch II MPS 54415
2002 05 11.29539 15 29 50.44 -19 01 23.6 18.3   704 – Lincoln Laboratory ETS, New Mexico MPS 54415
2002 05 11.30996 15 29 49.55 -19 01 24.3 18.7   704 – Lincoln Laboratory ETS, New Mexico MPS 54415
2002 05 11.32454 15 29 48.65 -19 01 25.1 18.4   704 – Lincoln Laboratory ETS, New Mexico MPS 54415
2002 05 11.33914 15 29 47.77 -19 01 26.2 18.7   704 – Lincoln Laboratory ETS, New Mexico MPS 54415
2002 05 11.35375 15 29 46.86 -19 01 26.7 18.9   704 – Lincoln Laboratory ETS, New Mexico MPS 54415
2002 05 13.29322 15 27 51.25 -19 03 28.5 18.3   704 – Lincoln Laboratory ETS, New Mexico MPS 54415
2002 05 13.30793 15 27 50.34 -19 03 29.7 18.7   704 – Lincoln Laboratory ETS, New Mexico MPS 54415
2002 05 13.32264 15 27 49.39 -19 03 30.3 18.5   704 – Lincoln Laboratory ETS, New Mexico MPS 54415
2002 05 13.33739 15 27 48.49 -19 03 32.5 18.5   704 – Lincoln Laboratory ETS, New Mexico MPS 54415
2002 05 13.35212 15 27 47.57 -19 03 33.0 18.6   704 – Lincoln Laboratory ETS, New Mexico MPS 54415
2002 05 17.26498 15 23 52.29 -19 07 19.1 17.6   644 – Palomar Mountain/NEAT MPS 54415
2002 05 17.34346 15 23 47.40 -19 07 23.5 17.6   644 – Palomar Mountain/NEAT MPS 54415
2002 05 17.40699 15 23 43.43 -19 07 26.8 17.6   644 – Palomar Mountain/NEAT MPS 54415
2002 05 21.24077 15 19 54.22 -19 10 55.1 18.3   704 – Lincoln Laboratory ETS, New Mexico MPS 56977
2002 05 21.25579 15 19 53.31 -19 10 55.8 18.4   704 – Lincoln Laboratory ETS, New Mexico MPS 56977
2002 05 21.30087 15 19 50.51 -19 10 58.3 18.6   704 – Lincoln Laboratory ETS, New Mexico MPS 56977
2002 05 31.24062 15 10 31.85 -19 19 50.9 18.4 R 699 – Lowell Observatory-LONEOS MPS 56977
2002 05 31.25021 15 10 31.36 -19 19 51.7   699 – Lowell Observatory-LONEOS MPS 56977
2002 05 31.25981 15 10 30.83 -19 19 51.1   699 – Lowell Observatory-LONEOS MPS 56977
2002 05 31.26946 15 10 30.29 -19 19 51.9   699 – Lowell Observatory-LONEOS MPS 56977
2002 06 04.28437 15 07 10.23 -19 23 49.7 18.5   644 – Palomar Mountain/NEAT MPS 56977
2002 06 04.30654 15 07 09.13 -19 23 51.1 18.6   644 – Palomar Mountain/NEAT MPS 56977
2002 06 04.33009 15 07 07.99 -19 23 52.5 18.7   644 – Palomar Mountain/NEAT MPS 56977
2002 06 08.23883 15 04 12.98 -19 28 15.5 18.8   704 – Lincoln Laboratory ETS, New Mexico MPS 56977
2002 06 08.25261 15 04 12.36 -19 28 16.7 19.0   704 – Lincoln Laboratory ETS, New Mexico MPS 56977
2002 06 08.26640 15 04 11.74 -19 28 17.6 19.1   704 – Lincoln Laboratory ETS, New Mexico MPS 56977
2002 06 08.28020 15 04 11.16 -19 28 18.4 19.0   704 – Lincoln Laboratory ETS, New Mexico MPS 56977
2002 06 08.29400 15 04 10.57 -19 28 19.3 19.1   704 – Lincoln Laboratory ETS, New Mexico MPS 56977
2002 06 09.23403 15 03 31.80 -19 29 28.0 19.6   704 – Lincoln Laboratory ETS, New Mexico MPS 56977
2002 06 09.24755 15 03 31.18 -19 29 28.2 19.6   704 – Lincoln Laboratory ETS, New Mexico MPS 56977
2002 06 09.26201 15 03 30.59 -19 29 29.7 19.4   704 – Lincoln Laboratory ETS, New Mexico MPS 56977
2002 06 09.27531 15 03 29.99 -19 29 30.8 19.5   704 – Lincoln Laboratory ETS, New Mexico MPS 56977
2002 06 09.28879 15 03 29.43 -19 29 31.4 19.7   704 – Lincoln Laboratory ETS, New Mexico MPS 56977
2002 06 12.22236 15 01 37.30 -19 33 21.2 18.1   644 – Palomar Mountain/NEAT MPS 56977
2002 06 12.24334 15 01 36.52 -19 33 23.1 18.2   644 – Palomar Mountain/NEAT MPS 56977
2002 06 12.26665 15 01 35.62 -19 33 24.9 18.6   644 – Palomar Mountain/NEAT MPS 56977
2003 09 03.41525 01 09 59.82 -04 47 42.4 18.2   704 – Lincoln Laboratory ETS, New Mexico MPS 83939
2003 09 03.41534 01 09 59.72 -04 47 42.1 18.5   704 – Lincoln Laboratory ETS, New Mexico MPS 83939
2003 09 03.42734 01 09 59.40 -04 47 44.9 18.5   704 – Lincoln Laboratory ETS, New Mexico MPS 83939
2003 09 03.42743 01 09 59.36 -04 47 44.4 18.8   704 – Lincoln Laboratory ETS, New Mexico MPS 83939
2003 09 03.43958 01 09 59.03 -04 47 47.3 18.9   704 – Lincoln Laboratory ETS, New Mexico MPS 83939
2003 09 03.43967 01 09 58.96 -04 47 47.4 18.9   704 – Lincoln Laboratory ETS, New Mexico MPS 83939
2003 09 03.45192 01 09 58.66 -04 47 49.4 18.9   704 – Lincoln Laboratory ETS, New Mexico MPS 83939
2003 09 03.45201 01 09 58.55 -04 47 49.9 19.0   704 – Lincoln Laboratory ETS, New Mexico MPS 83939
2003 09 03.46440 01 09 58.20 -04 47 52.1 18.8   704 – Lincoln Laboratory ETS, New Mexico MPS 83939
2003 09 03.46448 01 09 58.18 -04 47 52.6 18.7   704 – Lincoln Laboratory ETS, New Mexico MPS 83939
